Weather Roundup
Issued by NWS

Home | Current Version | Previous Version | Text Only | Print | Product List | Glossary On
Versions: 1 2 3 4 5 6 7 8 9 10 11 12 13 14 15 16 17 18 19 20 21 22 23 24 25 26 27 28 29 30 31 32 33 34 35 36 37 38 39 40 41 42 43 44 45 46 47 48 49 50
000
NZUS93 KARX 260059
HRRWXR

CURRENT HOURLY OBSERVATIONS ACROSS
MUCH OF THE UPPER MISSISSIPPI VALLEY
NATIONAL WEATHER SERVICE LA CROSSE WI
700 PM CST WED FEB 25 2015


...SOUTHEAST MINNESOTA...


CITY           SKY/WX    TMP DP  RH WIND       PRES   REMARKS
ROCHESTER      FAIR       8  -2  63 N9        30.07R WCI  -5
ROCHESTER/MAYO FAIR      11  -1  56 NW5       30.09R WCI   3
WINONA         FAIR      14   1  57 CALM      30.13R
AUSTIN         FAIR       9   0  66 N8        30.08R WCI  -4
ALBERT LEA     FAIR       7   1  78 N3        30.09R
DODGE CENTER   FAIR       7  -2  66 N7        30.08R WCI  -5
PRESTON        CLOUDY    10   2  72 N10       30.06R WCI  -4
OWATONNA       FAIR       1  -6  71 NW3       30.11R
FARIBAULT      FAIR       9  -2  61 NW5       30.13R WCI   0
$$

...ELSEWHERE IN MINNESOTA...


CITY           SKY/WX    TMP DP  RH WIND       PRES   REMARKS
MINNEAPOLIS    FAIR      12  -4  48 N8        30.16R WCI   0
INTNL FALLS    FAIR      -5 -16  59 NW6       30.22R WCI -18
DULUTH         FAIR       3 -13  47 N9        30.12R WCI -12
RED WING       FAIR      10  -6  48 N5        30.14R WCI   2
REDWOOD FALLS  FAIR       9  -1  64 NW13      30.20R WCI  -7
MANKATO        FAIR       9  -2  61 NW10      30.15R WCI  -6
WORTHINGTON    FAIR      30  -2  24 N16       30.15R WCI  19
FAIRMONT       FAIR       9   3  78 NW14      30.12R WCI  -8
$$

...SOUTHWEST WISCONSIN...


CITY           SKY/WX    TMP DP  RH WIND       PRES   REMARKS
LA CROSSE      CLOUDY    14   3  61 N6        30.10R WCI   5
PRAIRIE DU CHI FLURRIES  16   9  74 N6        30.06R WCI   7
BOSCOBEL       CLOUDY    15   7  70 NE6       30.08R WCI   6
LONE ROCK      NOT AVBL
PLATTEVILLE    MOCLDY    14  11  87 N5        30.02R WCI   6
FORT MC COY    FAIR      13   7  76 CALM      30.08R
VIROQUA        CLOUDY    11   8  85 N7        30.03R WCI   1
WIS DELLS      NOT AVBL
$$

...ELSEWHERE IN WISCONSIN...


CITY           SKY/WX    TMP DP  RH WIND       PRES   REMARKS
MILWAUKEE      SNOW      16  11  80 N9        30.04R VSB 1/2 WCI   4
MADISON        LGT SNOW  14   8  77 NE9       30.05R WCI   2
GREEN BAY      MOCLDY    12   1  61 NE5       30.08R WCI   4
EAU CLAIRE     NOT AVBL
BLACK RVR FLS  CLOUDY    14  -3  47 N5        30.09R WCI   6
MEDFORD        FAIR      10  -6  50 N7        30.01R WCI  -2
WAUSAU         FAIR      11  -3  53 NW3       30.02R
WIS RAPIDS     CLOUDY    12  -2  53 NW5       30.07R WCI   4
MARSHFIELD     FAIR      10  -2  58 NW8       30.03R WCI  -2
RICE LAKE      FAIR       7  -9  46 N5        30.13R WCI  -1
$$

...NORTHEAST IOWA...


CITY           SKY/WX    TMP DP  RH WIND       PRES   REMARKS
DECORAH        CLOUDY    12   7  79 N7        30.04R WCI   2
MASON CITY     FAIR       8   3  80 N14       30.09R WCI  -8
CHARLES CITY   CLOUDY    10   5  79 N13       30.06R WCI  -5
OELWEIN        FLURRIES  14   9  79 N14       30.03R WCI  -1
$$

...ELSEWHERE IN IOWA...


CITY           SKY/WX    TMP DP  RH WIND       PRES   REMARKS
DES MOINES     MIX PCPN  19  12  74 N18G26    30.02R WCI   4
IOWA CITY      LGT SNOW  16  12  84 NE14      30.01R FOG     WCI   2
FORT DODGE     MOCLDY    12   5  73 N13G18    30.10R WCI  -3
$$

...NORTHERN ILLINOIS...


CITY           SKY/WX    TMP DP  RH WIND       PRES   REMARKS
CHICAGO-OHARE  LGT SNOW  20  17  88 NE9       29.99R VSB 1   WCI   9
CHICAGO-MIDWAY LGT SNOW  23  18  81 NE10      30.00R VSB 1   WCI  12
MOLINE         LGT SNOW  17  12  80 NE15      29.97R VSB 1   WCI   2
ROCKFORD       LGT SNOW  16  12  84 N9        30.03R VSB 3/4 WCI   4
PEORIA         LGT SNOW  26  22  84 E8        29.93R VSB 1   WCI  18
$$

NOTE: "FAIR" INDICATES FEW OR NO CLOUDS BELOW 12,000 FEET WITH NO
SIGNIFICANT WEATHER AND/OR OBSTRUCTIONS TO VISIBILITY. WIND
SPEEDS ARE IN MILES-PER-HOUR.



USA.gov is the U.S. government's official web portal to all federal, state and local government web resources and services.